Location: Newark
(46.7000°N, 60.6000°W)
Time: 12:05:32
(UTC+00:00)

A-11 Canister half - Pass Details

Date: 07 November 2020
Orbit: 1516 x 1684 km, 47.2° (Epoch: 04 December)

Event Time Altitude Azimuth Distance (km) Brightness Sun altitude
Rises 01:13:02 0° 276° (W) 4,937 12.3 -46.2°
Reaches altitude 10° 01:16:13 10° 277° (W) 3,943 11.6 -46.7°
Enters shadow 01:22:31 45° 279° (W) 2,164 9.8 -47.6°
